Вернуться в каталог

CZ-6A DEB

АктивенPO
NORAD 61166·DEBRIS·🇨🇳 China

Запущен Aug 6, 2024 с Taiyuan Satellite Launch Center

Loading…

Ближайшие Пролёты (ближайшие 24 часа)

TLE

СвежийSource: Space-Track

Эпоха: Sep 14, 2026, 10:44 UTC

1 61166U 24140RL  26257.44755091  .00009833  00000-0  11529-2 0  9991
2 61166  88.9640 254.4320 0064275 253.3460 106.0702 14.83408786109997

Отслеживайте CZ-6A DEB в реальном времени с AllMySat

Download on the App Store